"Timestamp","TZ","WindDir_Mean (deg)","WindSpd_Mean (km/h)","WindSpd_Min (km/h)","WindSpd_Max (km/h)","Temp_Mean (deg)","RH_Mean (%)","MSLP_Mean (hPa)","Rain_Acc (mm)","Rain_Intensity (mm/h)","Hail_Acc (hits/cm2)","Hail_Intensity (hits/cm2hr)","Solar_Mean (W/m2)"
2022/04/15 00:00:00.008,n,301,1.44,1.08,2.16,18.3,70.6,1021.32,0,0,0,0,0.028725
2022/04/15 00:01:00.000,n,202,1.44,0.36,2.16,18.3,70.7,1021.32,0,0,0,0,0.030479
2022/04/15 00:02:00.001,n,242,5.76,5.04,6.12,18.3,70.7,1021.22,0,0,0,0,0.031319
2022/04/15 00:03:00.000,n,126,1.44,0.72,2.88,18.3,71,1021.22,0,0,0,0,0.030479
2022/04/15 00:04:00.000,n,153,6.48,4.32,10.8,18.3,70.8,1021.22,0,0,0,0,0.030479
2022/04/15 00:05:00.000,n,258,2.16,0,3.96,18.3,71.3,1021.22,0,0,0,0,0.029602
2022/04/15 00:06:00.007,n,305,2.52,1.44,3.24,18.3,71.3,1021.22,0,0,0,0,0.029602
2022/04/15 00:07:00.004,n,50,3.96,3.6,4.32,18.3,71,1021.22,0,0,0,0,0.033073
2022/04/15 00:08:00.001,n,181,3.6,2.88,4.68,18.3,70.7,1021.22,0,0,0,0,0.031319
2022/04/15 00:09:00.014,n,178,5.76,5.04,6.12,18.3,70.8,1021.22,0,0,0,0,0.028725
2022/04/15 00:10:00.000,n,172,3.6,2.52,4.32,18.2,70.8,1021.22,0,0,0,0,0.027885
2022/04/15 00:11:00.000,n,163,12.24,7.92,18,18.2,70.8,1021.22,0,0,0,0,0.029602
2022/04/15 00:12:00.005,n,233,3.24,2.16,3.96,18.2,70.9,1021.22,0,0,0,0,0.029602
2022/04/15 00:13:00.002,n,138,1.8,1.08,2.16,18.2,70.8,1021.22,0,0,0,0,0.025253
2022/04/15 00:14:00.000,n,181,2.16,0.72,2.88,18.2,71,1021.22,0,0,0,0,0.028725
2022/04/15 00:15:00.000,n,186,3.96,3.6,4.32,18.2,71,1021.22,0,0,0,0,0.027885
2022/04/15 00:16:00.010,n,182,2.16,1.44,2.52,18.2,71,1021.12,0,0,0,0,0.025253
2022/04/15 00:17:00.008,n,140,1.8,1.44,2.16,18.2,71,1021.12,0,0,0,0,0.027885
2022/04/15 00:18:00.005,n,201,3.96,3.96,4.68,18.2,71.1,1021.12,0,0,0,0,0.027885
2022/04/15 00:19:00.001,n,109,5.04,4.68,6.12,18.2,71.2,1021.12,0,0,0,0,0.026093
2022/04/15 00:20:00.000,n,177,10.440002,7.56,14.4,18.2,71.3,1021.12,0,0,0,0,0.02697
2022/04/15 00:21:00.000,n,1,0.72,0.36,1.08,18.2,71.3,1021.12,0,0,0,0,0.024376
2022/04/15 00:22:00.000,n,137,4.68,2.16,6.84,18.2,71.4,1021.12,0,0,0,0,0.024376
2022/04/15 00:23:00.007,n,182,6.12,3.96,11.88,18.2,71.5,1021.12,0,0,0,0,0.025253
2022/04/15 00:24:00.004,n,195,5.76,4.32,7.2,18.2,71.5,1021.12,0,0,0,0,0.022659
2022/04/15 00:25:00.002,n,233,2.16,2.16,2.88,18.2,71.6,1021.12,0,0,0,0,0.024376
2022/04/15 00:26:00.000,n,150,10.440002,7.2,14.76,18.2,71.6,1021.12,0,0,0,0,0.023499
2022/04/15 00:27:00.013,n,176,10.8,2.88,18.72,18.2,71.5,1021.02,0,0,0,0,0.026093
2022/04/15 00:28:00.000,n,196,7.2,5.4,11.16,18.2,71.5,1021.02,0,0,0,0,0.024376
2022/04/15 00:29:00.000,n,208,4.68,4.32,5.4,18.2,71.5,1021.02,0,0,0,0,0.026093
2022/04/15 00:30:00.005,n,147,3.96,0.72,7.56,18.2,71.5,1021.02,0,0,0,0,0.020027
2022/04/15 00:31:00.002,n,184,6.48,4.32,10.8,18.2,71.4,1021.02,0,0,0,0,0.023499
2022/04/15 00:32:00.000,n,166,10.440002,4.68,14.4,18.2,71.4,1021.02,0,0,0,0,0.02697
2022/04/15 00:33:00.008,n,200,3.96,3.6,4.68,18.2,71.4,1021.02,0,0,0,0,0.032196
2022/04/15 00:34:00.005,n,306,1.08,0.36,2.16,18.2,71.4,1021.02,0,0,0,0,0.034828
2022/04/15 00:35:00.002,n,195,5.04,0.72,11.88,18.2,71.4,1021.12,0,0,0,0,0.031319
2022/04/15 00:36:00.000,n,168,7.92,5.4,12.6,18.2,71.4,1021.02,0,0,0,0,0.033073
2022/04/15 00:37:00.000,n,250,5.76,5.4,6.12,18.2,71.4,1021.02,0,0,0,0,0.034828
2022/04/15 00:38:00.000,n,241,1.8,1.08,2.16,18.2,71.5,1021.02,0,0,0,0,0.032196
2022/04/15 00:39:00.000,n,189,4.32,3.6,4.68,18.2,71.7,1021.12,0,0,0,0,0.030441
2022/04/15 00:40:00.004,n,188,2.16,1.8,2.88,18.2,71.6,1021.12,0,0,0,0,0.032196
2022/04/15 00:41:00.002,n,248,0.72,0.72,0.72,18.2,71.7,1021.12,0,0,0,0,0.031319
2022/04/15 00:42:00.000,n,261,5.4,4.68,6.12,18.2,71.6,1021.12,0,0,0,0,0.030441
2022/04/15 00:43:00.000,n,237,4.32,3.6,5.04,18.2,71.7,1021.12,0,0,0,0,0.029602
2022/04/15 00:44:00.011,n,231,2.16,2.16,2.88,18.2,71.8,1021.12,0,0,0,0,0.032196
2022/04/15 00:45:00.008,n,260,3.6,2.88,3.96,18.2,72,1021.12,0,0,0,0,0.030441
2022/04/15 00:46:00.000,n,271,4.32,3.6,4.68,18.2,71.9,1021.02,0,0,0,0,0.031319
2022/04/15 00:47:00.001,n,250,3.24,2.52,4.68,18.2,72,1021.02,0,0,0,0,0.029602
2022/04/15 00:48:00.001,n,328,0.72,0.36,1.08,18.1,72.2,1021.12,0,0,0,0,0.031319
2022/04/15 00:49:00.003,n,309,3.24,2.16,4.68,18.1,72.7,1021.12,0,0,0,0,0.033073
2022/04/15 00:50:00.000,n,254,6.84,6.12,7.2,18.1,72.4,1021.02,0,0,0,0,0.035667
2022/04/15 00:51:00.010,n,256,1.8,1.08,2.16,18.1,72.5,1021.02,0,0,0,0,0.039177
2022/04/15 00:52:00.008,n,266,2.88,1.8,3.96,18.1,72.8,1021.02,0,0,0,0,0.040016
2022/04/15 00:53:00.005,n,282,1.08,0.36,3.24,18.1,72.9,1021.02,0,0,0,0,0.039177
2022/04/15 00:54:00.002,n,264,2.16,1.44,3.24,18.1,72.6,1021.02,0,0,0,0,0.036545
2022/04/15 00:55:00.000,n,255,3.6,2.88,4.32,18,72.6,1021.02,0,0,0,0,0.037422
2022/04/15 00:56:00.000,n,273,1.08,0.72,1.8,18,72.6,1021.02,0,0,0,0,0.042648
2022/04/15 00:57:00.000,n,158,0.72,0,1.8,18,72.7,1021.02,0,0,0,0,0.035667
2022/04/15 00:58:00.006,n,17,1.08,0.72,1.44,18,73.2,1021.02,0,0,0,0,0.0383
2022/04/15 00:59:00.003,n,285,1.8,1.8,2.16,18,73.2,1021.02,0,0,0,0,0.040016
2022/04/15 01:00:00.001,n,218,1.8,1.44,1.8,18,73.8,1021.02,0,0,0,0,0.031319
2022/04/15 01:01:00.000,n,261,1.08,0.36,1.8,18,73.5,1021.02,0,0,0,0,0.0383
2022/04/15 01:02:00.011,n,257,1.8,1.44,2.16,18,73.4,1021.02,0,0,0,0,0.035667
2022/04/15 01:03:00.009,n,148,1.44,0.72,2.16,18,73.9,1021.02,0,0,0,0,0.036545
2022/04/15 01:04:00.000,n,261,1.08,0.72,1.44,18,73.4,1021.02,0,0,0,0,0.033951
2022/04/15 01:05:00.002,n,17,1.08,0.72,1.08,18,73.2,1021.02,0,0,0,0,0.034828
2022/04/15 01:06:00.000,n,194,3.6,1.8,5.4,18,73.1,1021.02,0,0,0,0,0.034828
2022/04/15 01:07:00.000,n,304,2.88,2.52,3.24,18,73.6,1021.02,0,0,0,0,0.034828
2022/04/15 01:08:00.000,n,154,2.88,1.8,3.96,18,73.4,1021.02,0,0,0,0,0.033951
2022/04/15 01:09:00.007,n,253,3.24,2.88,3.6,18,73.8,1021.02,0,0,0,0,0.033073
2022/04/15 01:10:00.004,n,178,0.72,0.36,1.08,18,73.8,1020.92,0,0,0,0,0.035667
2022/04/15 01:11:00.000,n,306,3.24,2.88,3.6,18,74.9,1020.92,0,0,0,0,0.031319
2022/04/15 01:12:00.014,n,296,4.32,3.96,4.68,18,74.9,1020.92,0,0,0,0,0.033073
2022/04/15 01:13:00.000,n,276,4.32,3.6,4.68,18.1,75.2,1020.92,0,0,0,0,0.033073
2022/04/15 01:14:00.000,n,264,2.88,1.8,3.6,18,73.6,1020.92,0,0,0,0,0.032196
2022/04/15 01:15:00.005,n,275,3.96,3.24,4.68,17.9,73.9,1020.92,0,0,0,0,0.033073
2022/04/15 01:16:00.002,n,293,3.6,2.88,4.32,17.9,73.7,1020.92,0,0,0,0,0.032196
2022/04/15 01:17:00.000,n,278,5.4,4.68,5.76,17.9,74,1020.92,0,0,0,0,0.031319
2022/04/15 01:18:00.000,n,264,3.24,3.24,3.96,17.9,73.6,1020.92,0,0,0,0,0.033951
2022/04/15 01:19:00.010,n,268,2.16,1.44,3.24,17.9,74.5,1020.92,0,0,0,0,0.032196
2022/04/15 01:20:00.007,n,295,7.2,6.12,7.92,17.9,74.3,1020.92,0,0,0,0,0.033073
2022/04/15 01:21:00.004,n,282,2.16,1.08,3.24,17.9,75.2,1020.92,0,0,0,0,0.031319
2022/04/15 01:22:00.001,n,267,7.56,7.2,7.92,17.9,73.7,1020.92,0,0,0,0,0.032196
2022/04/15 01:23:00.000,n,246,4.68,3.96,5.04,17.8,74.8,1020.92,0,0,0,0,0.033073
2022/04/15 01:24:00.000,n,257,7.2,6.12,8.64,17.8,73.5,1020.92,0,0,0,0,0.031319
2022/04/15 01:25:00.000,n,257,5.04,4.68,5.4,17.8,73.8,1020.92,0,0,0,0,0.028725
2022/04/15 01:26:00.005,n,271,3.96,3.6,4.68,17.7,73.5,1020.92,0,0,0,0,0.028725
2022/04/15 01:27:00.003,n,289,5.4,5.4,5.76,17.7,73.4,1020.92,0,0,0,0,0.032196
2022/04/15 01:28:00.000,n,258,7.56,7.2,7.92,17.7,73.5,1020.92,0,0,0,0,0.028725
2022/04/15 01:29:00.013,n,263,5.76,4.68,8.28,17.7,73.5,1020.82,0,0,0,0,0.028725
2022/04/15 01:30:00.010,n,249,4.68,4.32,5.4,17.7,73.6,1020.82,0,0,0,0,0.033073
2022/04/15 01:31:00.000,n,251,7.92,6.84,9,17.7,73.6,1020.82,0,0,0,0,0.029602
2022/04/15 01:32:00.000,n,283,5.4,4.68,5.76,17.7,73.8,1020.82,0,0,0,0,0.029602
2022/04/15 01:33:00.002,n,272,2.16,1.8,2.88,17.7,74.7,1020.82,0,0,0,0,0.02697
2022/04/15 01:34:00.000,n,268,5.04,3.24,7.2,17.7,74.4,1020.82,0,0,0,0,0.030441
2022/04/15 01:35:00.000,n,270,6.48,2.16,7.92,17.7,73.9,1020.82,0,0,0,0,0.031319
2022/04/15 01:36:00.009,n,275,2.52,2.16,2.88,17.6,73.9,1020.82,0,0,0,0,0.031319
2022/04/15 01:37:00.006,n,258,3.24,2.88,4.32,17.6,73.9,1020.82,0,0,0,0,0.02697
2022/04/15 01:38:00.003,n,246,4.68,3.24,5.04,17.6,74.1,1020.82,0,0,0,0,0.027847
2022/04/15 01:39:00.001,n,265,1.44,1.44,1.8,17.6,74.1,1020.82,0,0,0,0,0.027847
2022/04/15 01:40:00.000,n,235,0.36,0.36,0.36,17.6,74.3,1020.82,0,0,0,0,0.029602
2022/04/15 01:41:00.000,n,69,2.16,1.44,2.52,17.6,75,1020.82,0,0,0,0,0.030441
2022/04/15 01:42:00.000,n,139,9.72,8.64,10.8,17.7,74.5,1020.92,0,0,0,0,0.028725
2022/04/15 01:43:00.005,n,121,2.88,1.44,5.04,17.7,74.4,1020.92,0,0,0,0,0.02697
2022/04/15 01:44:00.003,n,272,5.4,4.68,6.12,17.7,74.3,1020.92,0,0,0,0,0.030441
2022/04/15 01:45:00.000,n,326,2.16,0.36,2.88,17.8,75.6,1020.82,0,0,0,0,0.027847
2022/04/15 01:46:00.000,n,69,1.08,0.36,1.8,17.9,75.1,1020.82,0,0,0,0,0.031319
2022/04/15 01:47:00.011,n,146,2.16,1.44,3.6,17.9,74.3,1020.82,0,0,0,0,0.027847
2022/04/15 01:48:00.008,n,287,3.24,2.52,3.96,17.9,74.4,1020.82,0,0,0,0,0.027847
2022/04/15 01:49:00.000,n,287,2.16,1.8,2.52,17.9,74.4,1020.72,0,0,0,0,0.028725
2022/04/15 01:50:00.000,n,294,5.4,5.04,6.12,17.9,74.8,1020.72,0,0,0,0,0.027847
2022/04/15 01:51:00.000,n,295,3.96,3.6,3.96,17.9,74.9,1020.72,0,0,0,0,0.024376
2022/04/15 01:52:00.000,n,199,3.6,3.24,4.32,17.9,74.9,1020.72,0,0,0,0,0.027847
2022/04/15 01:53:00.000,n,262,3.96,3.24,4.68,17.9,74.4,1020.72,0,0,0,0,0.026093
2022/04/15 01:54:00.008,n,278,4.32,3.96,4.68,17.9,76,1020.62,0,0,0,0,0.028725
2022/04/15 01:55:00.005,n,277,6.12,5.76,6.12,17.9,75.2,1020.72,0,0,0,0,0.025253
2022/04/15 01:56:00.002,n,292,4.32,3.24,5.4,17.9,75.6,1020.62,0,0,0,0,0.030441
2022/04/15 01:57:00.015,n,313,3.96,3.24,4.68,17.9,75,1020.62,0,0,0,0,0.029602
2022/04/15 01:58:00.000,n,273,4.32,3.6,5.04,17.9,74.3,1020.62,0,0,0,0,0.028725
2022/04/15 01:59:00.000,n,274,7.56,7.2,8.64,17.8,74.1,1020.62,0,0,0,0,0.030441
2022/04/15 02:00:00.000,n,260,3.6,3.6,3.96,17.8,74.1,1020.62,0,0,0,0,0.027847
2022/04/15 02:01:00.004,n,273,2.52,1.8,3.24,17.8,74.7,1020.62,0,0,0,0,0.030441
2022/04/15 02:02:00.001,n,228,1.8,1.44,2.16,17.9,75.5,1020.62,0,0,0,0,0.027847
2022/04/15 02:03:00.000,n,262,3.24,2.52,3.96,17.9,75.2,1020.72,0,0,0,0,0.030441
2022/04/15 02:04:00.011,n,286,2.88,0.36,4.32,17.9,74.4,1020.72,0,0,0,0,0.030441
2022/04/15 02:05:00.008,n,202,2.88,1.08,3.6,17.8,74.3,1020.72,0,0,0,0,0.029602
2022/04/15 02:06:00.005,n,334,0.72,0.36,1.08,17.8,74.7,1020.72,0,0,0,0,0.029602
2022/04/15 02:07:00.000,n,278,1.8,1.08,2.88,17.8,74.6,1020.62,0,0,0,0,0.030441
2022/04/15 02:08:00.000,n,149,2.16,1.44,2.88,17.8,74.6,1020.62,0,0,0,0,0.031319
2022/04/15 02:09:00.000,n,270,0.72,0.72,1.44,17.8,75,1020.62,0,0,0,0,0.028725
2022/04/15 02:10:00.000,n,308,2.52,1.44,3.6,17.9,75.6,1020.62,0,0,0,0,0.031319
2022/04/15 02:11:00.008,n,262,3.24,1.8,4.32,17.9,75.1,1020.62,0,0,0,0,0.032196
2022/04/15 02:12:00.007,n,258,1.8,1.44,2.16,17.9,74.5,1020.62,0,0,0,0,0.030441
2022/04/15 02:13:00.004,n,229,1.44,1.08,1.8,17.8,74.7,1020.62,0,0,0,0,0.030441
2022/04/15 02:14:00.001,n,212,2.52,1.08,3.24,17.8,74.7,1020.62,0,0,0,0,0.031319
2022/04/15 02:15:00.014,n,186,2.88,2.16,3.6,17.8,74.9,1020.62,0,0,0,0,0.030441
2022/04/15 02:16:00.000,n,195,0.72,0,1.8,17.8,75.3,1020.62,0,0,0,0,0.029602
2022/04/15 02:17:00.000,n,198,5.76,4.32,6.48,17.8,75.2,1020.62,0,0,0,0,0.029602
2022/04/15 02:18:00.000,n,194,4.68,1.08,7.56,17.8,75.2,1020.62,0,0,0,0,0.032196
2022/04/15 02:19:00.002,n,222,2.88,2.16,3.96,17.8,75.4,1020.62,0,0,0,0,0.030441
2022/04/15 02:20:00.000,n,282,4.32,1.8,5.04,17.8,75.6,1020.52,0,0,0,0,0.029602
2022/04/15 02:21:00.000,n,174,2.88,0.36,4.68,17.8,76,1020.52,0,0,0,0,0.033073
2022/04/15 02:22:00.003,n,227,7.2,6.12,8.64,17.8,76,1020.42,0.04,2.2,0,0,0.031319
2022/04/15 02:23:00.008,n,196,2.52,2.16,3.6,17.8,76.6,1020.42,0.04,0,0,0,0.032196
2022/04/15 02:24:00.014,n,162,24.119998,19.44,27,17.8,76.9,1020.32,0.04,0,0,0,0.033951
2022/04/15 02:25:00.002,n,252,3.6,2.52,4.68,17.8,77.3,1020.32,0.04,0,0,0,0.033073
2022/04/15 02:26:00.000,n,202,4.32,2.88,5.4,17.8,77.2,1020.32,0.04,0,0,0,0.035667
2022/04/15 02:27:00.000,n,322,1.08,0.36,1.08,17.8,77.4,1020.32,0.04,0,0,0,0.031319
2022/04/15 02:28:00.001,n,235,3.6,1.08,5.4,17.8,77.9,1020.32,0.04,0,0,0,0.028725
2022/04/15 02:29:00.006,n,165,4.32,3.6,4.68,17.7,77.9,1020.32,0.04,0,0,0,0.031319
2022/04/15 02:30:00.000,n,268,5.4,4.68,6.48,17.7,78.9,1020.32,0.04,0,0,0,0.031319
2022/04/15 02:31:00.001,n,185,3.96,3.24,4.32,17.8,78.6,1020.22,0.04,0,0,0,0.030441
2022/04/15 02:32:00.007,n,331,0.72,0,1.8,17.7,78.5,1020.22,0.04,0,0,0,0.028725
2022/04/15 02:33:00.012,n,161,9.72,7.56,12.96,17.7,78.5,1020.32,0.04,0,0,0,0.029602
2022/04/15 02:34:00.000,n,73,1.44,1.08,1.8,17.6,78.6,1020.32,0.04,0,0,0,0.027847
2022/04/15 02:35:00.000,n,184,3.96,3.6,5.4,17.6,78.8,1020.32,0.04,0,0,0,0.024376
2022/04/15 02:36:00.000,n,181,3.6,3.24,4.32,17.6,79,1020.42,0.04,0,0,0,0.028725
2022/04/15 02:37:00.001,n,159,6.48,4.68,12.6,17.5,78.8,1020.32,0.04,0,0,0,0.02697
2022/04/15 02:38:00.007,n,276,4.32,3.6,5.76,17.5,79.1,1020.32,0.04,0,0,0,0.026093
2022/04/15 02:39:00.000,n,251,4.32,3.6,5.4,17.5,79.2,1020.32,0.04,0,0,0,0.026093
2022/04/15 02:40:00.000,n,29,0.72,0.36,1.44,17.5,79.2,1020.32,0.04,0,0,0,0.023499
2022/04/15 02:41:00.006,n,201,4.68,3.6,6.12,17.5,79.8,1020.32,0.04,0,0,0,0.026093
2022/04/15 02:42:00.012,n,234,2.16,1.8,2.52,17.5,79.6,1020.32,0.04,0,0,0,0.021744
2022/04/15 02:43:00.000,n,243,3.96,3.6,5.04,17.5,79.6,1020.32,0.04,0,0,0,0.028725
2022/04/15 02:44:00.000,n,268,7.2,6.12,8.28,17.5,79.3,1020.42,0.04,0,0,0,0.026093
2022/04/15 02:45:00.000,n,244,4.32,3.96,5.04,17.5,79.6,1020.42,0.04,0,0,0,0.024376
2022/04/15 02:46:00.000,n,50,2.16,0.72,3.6,17.5,80.1,1020.42,0.04,0,0,0,0.024376
2022/04/15 02:47:00.004,n,272,5.4,4.32,6.48,17.5,79.9,1020.42,0.04,0,0,0,0.026093
2022/04/15 02:48:00.009,n,299,3.24,1.8,5.04,17.5,79.8,1020.42,0.04,0,0,0,0.023499
2022/04/15 02:49:00.000,n,271,5.04,3.96,5.76,17.5,80.3,1020.42,0.04,0,0,0,0.025253
2022/04/15 02:50:00.004,n,198,0.72,0.36,1.8,17.5,80.1,1020.42,0.04,0,0,0,0.024376
2022/04/15 02:51:00.010,n,274,6.48,5.76,7.56,17.5,79.8,1020.42,0.04,0,0,0,0.024376
2022/04/15 02:52:00.000,n,226,2.16,1.44,2.52,17.5,80.3,1020.42,0.04,0,0,0,0.023499
2022/04/15 02:53:00.000,n,178,9.72,6.48,14.04,17.5,79.8,1020.42,0.04,0,0,0,0.021744
2022/04/15 02:54:00.000,n,230,0.72,0.36,1.44,17.5,79.9,1020.32,0.04,0,0,0,0.022621
2022/04/15 02:55:00.000,n,189,1.44,1.08,1.8,17.5,79.6,1020.32,0.04,0,0,0,0.024376
2022/04/15 02:56:00.004,n,206,1.44,1.08,2.52,17.4,79.7,1020.42,0.04,0,0,0,0.026093
2022/04/15 02:57:00.010,n,231,3.24,2.52,5.76,17.4,79.6,1020.42,0.04,0,0,0,0.023499
2022/04/15 02:58:00.000,n,127,5.4,3.96,7.92,17.4,79.5,1020.42,0.04,0,0,0,0.020027
2022/04/15 02:59:00.005,n,133,5.04,4.32,6.12,17.4,79.4,1020.42,0.04,0,0,0,0.023499
2022/04/15 03:00:00.010,n,147,4.68,3.6,5.76,17.4,79.2,1020.42,0.04,0,0,0,0.020027
2022/04/15 03:01:00.000,n,157,11.16,8.28,13.68,17.4,78.9,1020.32,0.04,0,0,0,0.029602
2022/04/15 03:02:00.000,n,55,2.52,1.44,3.6,17.4,78.8,1020.32,0.04,0,0,0,0.033951
2022/04/15 03:03:00.000,n,32,1.44,0.36,2.16,17.4,78.9,1020.32,0.04,0,0,0,0.035667
2022/04/15 03:04:00.000,n,147,10.8,8.28,12.96,17.5,78.7,1020.32,0.04,0,0,0,0.034828
2022/04/15 03:05:00.002,n,113,1.8,1.08,3.6,17.5,78.5,1020.32,0.04,0,0,0,0.031319
2022/04/15 03:06:00.007,n,129,6.84,3.96,8.64,17.5,78.3,1020.32,0.04,0,0,0,0.036545
2022/04/15 03:07:00.013,n,186,1.8,1.08,3.24,17.5,78.3,1020.32,0.04,0,0,0,0.033073
2022/04/15 03:08:00.001,n,234,3.96,3.24,4.68,17.5,78.2,1020.32,0.04,0,0,0,0.034828
2022/04/15 03:09:00.006,n,213,2.16,1.8,3.24,17.5,78.5,1020.32,0.04,0,0,0,0.033951
2022/04/15 03:10:00.000,n,213,5.4,5.04,5.4,17.6,78.2,1020.32,0.04,0,0,0,0.033951
2022/04/15 03:11:00.001,n,159,3.24,1.08,4.68,17.6,78.3,1020.32,0.04,0,0,0,0.031319
2022/04/15 03:12:00.000,n,157,3.6,2.52,4.32,17.6,77.9,1020.32,0.04,0,0,0,0.033951
2022/04/15 03:13:00.000,n,186,8.28,5.76,11.16,17.6,78,1020.32,0.04,0,0,0,0.032234
2022/04/15 03:14:00.001,n,200,5.4,3.96,6.84,17.6,78,1020.32,0.04,0,0,0,0.030441
2022/04/15 03:15:00.006,n,240,5.04,5.04,5.76,17.6,77.8,1020.32,0.04,0,0,0,0.036545
2022/04/15 03:16:00.011,n,89,3.24,2.16,4.68,17.6,77.7,1020.22,0.04,0,0,0,0.033951
2022/04/15 03:17:00.000,n,260,5.4,4.32,5.76,17.7,77.8,1020.22,0.04,0,0,0,0.031319
2022/04/15 03:18:00.005,n,248,2.52,1.44,3.96,17.7,77.8,1020.22,0.04,0,0,0,0.033073
2022/04/15 03:19:00.000,n,218,1.08,0,1.44,17.7,77.9,1020.22,0.04,0,0,0,0.036545
2022/04/15 03:20:00.001,n,302,1.44,1.08,2.16,17.7,77.9,1020.22,0.04,0,0,0,0.035667
2022/04/15 03:21:00.000,n,154,10.08,7.2,15.84,17.7,77.8,1020.22,0.04,0,0,0,0.032234
2022/04/15 03:22:00.000,n,38,1.8,0.36,4.32,17.7,77.9,1020.22,0.04,0,0,0,0.033951
2022/04/15 03:23:00.000,n,98,1.8,0.72,3.96,17.7,78.4,1020.22,0.04,0,0,0,0.035667
2022/04/15 03:24:00.006,n,160,7.56,5.04,11.88,17.8,78.3,1020.22,0.04,0,0,0,0.036545
2022/04/15 03:25:00.011,n,165,3.96,2.88,5.04,17.8,77.7,1020.22,0.04,0,0,0,0.036545
2022/04/15 03:26:00.001,n,169,12.96,7.92,16.56,17.8,77.6,1020.22,0.04,0,0,0,0.033951
2022/04/15 03:27:00.006,n,186,8.28,7.56,9.36,17.8,77.6,1020.22,0.04,0,0,0,0.032234
2022/04/15 03:28:00.000,n,235,4.32,2.88,4.68,17.8,77.6,1020.22,0.04,0,0,0,0.037422
2022/04/15 03:29:00.001,n,224,6.84,3.96,7.92,17.8,77.6,1020.22,0.04,0,0,0,0.037422
2022/04/15 03:30:00.000,n,201,7.2,5.4,12.96,17.8,77.5,1020.22,0.04,0,0,0,0.037422
2022/04/15 03:31:00.000,n,189,3.96,3.24,5.04,17.8,77.5,1020.32,0.04,0,0,0,0.035667
2022/04/15 03:32:00.001,n,140,6.12,4.68,7.2,17.8,77.6,1020.22,0.04,0,0,0,0.035667
2022/04/15 03:33:00.006,n,171,5.4,4.32,10.08,17.8,77.7,1020.32,0.04,0,0,0,0.036545
2022/04/15 03:34:00.011,n,190,12.6,11.52,13.32,17.8,77.6,1020.22,0.04,0,0,0,0.034828
2022/04/15 03:35:00.000,n,152,7.56,5.04,11.16,17.9,77.6,1020.22,0.04,0,0,0,0.035667
2022/04/15 03:36:00.005,n,177,10.08,8.28,12.6,17.9,77.5,1020.22,0.04,0,0,0,0.036545
2022/04/15 03:37:00.000,n,176,7.56,4.68,12.6,17.9,77.5,1020.22,0.04,0,0,0,0.036545
2022/04/15 03:38:00.001,n,187,8.28,5.04,10.8,17.9,77.2,1020.22,0.04,0,0,0,0.040016
2022/04/15 03:39:00.000,n,228,3.96,3.24,4.32,17.9,77.4,1020.22,0.04,0,0,0,0.034828
2022/04/15 03:40:00.000,n,274,4.68,3.24,5.76,17.9,77.5,1020.22,0.04,0,0,0,0.036545
2022/04/15 03:41:00.002,n,279,3.96,3.6,5.4,17.9,77.4,1020.12,0.04,0,0,0,0.037422
2022/04/15 03:42:00.008,n,342,1.08,0.36,1.8,17.9,77.5,1020.12,0.04,0,0,0,0.040016
2022/04/15 03:43:00.013,n,272,1.44,0.72,1.8,18,77.8,1020.12,0.04,0,0,0,0.037422
2022/04/15 03:44:00.001,n,267,5.76,2.88,7.56,18,77.4,1020.22,0.04,0,0,0,0.0383
2022/04/15 03:45:00.007,n,204,2.16,1.8,2.88,17.9,77.3,1020.22,0.04,0,0,0,0.037422
2022/04/15 03:46:00.000,n,100,1.8,0.72,2.16,17.9,77.3,1020.22,0.04,0,0,0,0.042648
2022/04/15 03:47:00.000,n,54,1.44,1.08,2.16,17.9,77.3,1020.22,0.04,0,0,0,0.040016
2022/04/15 03:48:00.000,n,241,1.08,0.36,1.8,17.9,77.5,1020.22,0.04,0,0,0,0.037422
2022/04/15 03:49:00.000,n,313,2.52,1.08,3.96,17.9,77.5,1020.22,0.04,0,0,0,0.040016
2022/04/15 03:50:00.002,n,270,1.8,1.44,2.16,17.9,77.7,1020.22,0.04,0,0,0,0.040894
2022/04/15 03:51:00.008,n,240,6.48,5.4,7.92,17.9,77.3,1020.12,0.04,0,0,0,0.040016
2022/04/15 03:52:00.013,n,179,5.4,3.96,10.8,17.8,77.4,1020.22,0.04,0,0,0,0.040016
2022/04/15 03:53:00.003,n,145,1.44,0.72,1.8,17.8,77.7,1020.22,0.04,0,0,0,0.043526
2022/04/15 03:54:00.008,n,171,2.16,0.72,3.96,17.8,77.7,1020.22,0.04,0,0,0,0.040016
2022/04/15 03:55:00.000,n,219,1.08,0.72,1.8,17.8,77.7,1020.22,0.04,0,0,0,0.043526
2022/04/15 03:56:00.002,n,298,5.04,4.32,5.76,17.8,77.7,1020.22,0.04,0,0,0,0.043526
2022/04/15 03:57:00.000,n,177,1.8,1.44,1.8,17.8,77.7,1020.22,0.04,0,0,0,0.042648
2022/04/15 03:58:00.000,n,262,3.96,1.44,6.48,17.8,77.8,1020.12,0.04,0,0,0,0.044403
2022/04/15 03:59:00.003,n,163,3.24,1.8,4.68,17.8,77.5,1020.22,0.04,0,0,0,0.045242
2022/04/15 04:00:00.008,n,176,3.6,1.8,8.64,17.7,77.6,1020.22,0.04,0,0,0,0.04612
2022/04/15 04:01:00.000,n,149,4.68,1.08,10.440002,17.7,77.8,1020.22,0.04,0,0,0,0.045242
2022/04/15 04:02:00.002,n,190,1.8,1.44,1.8,17.7,77.6,1020.22,0.04,0,0,0,0.044403
2022/04/15 04:03:00.008,n,222,5.76,3.24,7.56,17.7,77.4,1020.22,0.04,0,0,0,0.04612
2022/04/15 04:04:00.000,n,186,3.96,2.16,4.32,17.7,77.6,1020.22,0.04,0,0,0,0.042648
2022/04/15 04:05:00.003,n,269,2.88,1.8,4.32,17.7,77.6,1020.22,0.04,0,0,0,0.045242
2022/04/15 04:06:00.000,n,111,1.8,1.44,3.24,17.7,77.6,1020.22,0.04,0,0,0,0.044403
2022/04/15 04:07:00.000,n,125,2.16,0.72,5.04,17.7,77.4,1020.22,0.04,0,0,0,0.047874
2022/04/15 04:08:00.003,n,229,4.68,3.96,4.68,17.7,77.4,1020.22,0.04,0,0,0,0.050468
2022/04/15 04:09:00.008,n,208,3.6,3.24,4.32,17.7,77.5,1020.22,0.04,0,0,0,0.044403
2022/04/15 04:10:00.013,n,74,4.68,3.24,5.76,17.7,77.6,1020.22,0.04,0,0,0,0.048752
2022/04/15 04:11:00.001,n,153,4.68,3.96,5.4,17.7,77.4,1020.22,0.04,0,0,0,0.04612
2022/04/15 04:12:00.006,n,203,3.6,1.08,11.16,17.7,77.8,1020.22,0.04,0,0,0,0.045242
2022/04/15 04:13:00.000,n,261,6.48,5.4,6.84,17.8,77.3,1020.22,0.04,0,0,0,0.045242
2022/04/15 04:14:00.002,n,344,0.72,0,1.44,17.7,77.7,1020.22,0.04,0,0,0,0.045242
2022/04/15 04:15:00.000,n,234,2.16,1.8,3.24,17.7,77.5,1020.22,0.04,0,0,0,0.04612
2022/04/15 04:16:00.000,n,301,4.32,3.6,4.68,17.8,78,1020.22,0.04,0,0,0,0.04612
2022/04/15 04:17:00.001,n,274,6.48,5.04,9.36,17.8,77.6,1020.22,0.04,0,0,0,0.049591
2022/04/15 04:18:00.006,n,244,3.6,2.52,5.04,17.8,77.6,1020.22,0.04,0,0,0,0.047035
2022/04/15 04:19:00.011,n,250,0.72,0.72,1.08,17.7,77.4,1020.22,0.04,0,0,0,0.047874
2022/04/15 04:20:00.001,n,219,5.76,5.04,6.84,17.7,77.3,1020.22,0.04,0,0,0,0.045242
2022/04/15 04:21:00.006,n,248,1.44,1.08,2.16,17.7,77.2,1020.22,0.04,0,0,0,0.047874
2022/04/15 04:22:00.000,n,232,4.68,2.52,6.12,17.7,77.1,1020.22,0.04,0,0,0,0.049591
2022/04/15 04:23:00.001,n,118,1.8,0.72,2.16,17.7,77,1020.22,0.04,0,0,0,0.047874
2022/04/15 04:24:00.000,n,160,2.88,1.44,4.32,17.7,77.1,1020.22,0.04,0,0,0,0.048752
2022/04/15 04:25:00.000,n,276,6.12,5.4,6.84,17.7,77.1,1020.12,0.04,0,0,0,0.049591
2022/04/15 04:26:00.003,n,229,5.04,4.32,5.76,17.7,77,1020.12,0.04,0,0,0,0.048752
2022/04/15 04:27:00.008,n,240,1.44,0.72,2.16,17.7,77,1020.12,0.04,0,0,0,0.044403
2022/04/15 04:28:00.000,n,246,2.52,2.16,2.52,17.7,77.7,1020.12,0.04,0,0,0,0.044403
2022/04/15 04:29:00.002,n,206,3.24,2.88,3.6,17.7,77.5,1020.12,0.04,0,0,0,0.045242
2022/04/15 04:30:00.008,n,269,3.24,2.88,3.96,17.7,77.4,1020.12,0.04,0,0,0,0.048752
2022/04/15 04:31:00.000,n,255,3.6,3.24,4.32,17.7,77.3,1020.12,0.04,0,0,0,0.043526
2022/04/15 04:32:00.003,n,272,5.4,4.68,6.48,17.7,77.5,1020.12,0.04,0,0,0,0.047035
2022/04/15 04:33:00.000,n,201,2.52,1.8,3.24,17.7,77.4,1020.12,0.04,0,0,0,0.043526
2022/04/15 04:34:00.000,n,276,5.04,4.32,5.76,17.7,77.6,1020.12,0.04,0,0,0,0.045242
2022/04/15 04:35:00.003,n,259,9.36,8.64,10.08,17.6,77.5,1020.12,0.04,0,0,0,0.047874
2022/04/15 04:36:00.009,n,266,5.4,3.6,7.56,17.6,77.5,1020.12,0.04,0,0,0,0.044403
2022/04/15 04:37:00.000,n,275,5.04,4.68,6.12,17.6,78.1,1020.12,0.04,0,0,0,0.045242
2022/04/15 04:38:00.004,n,238,1.44,0,2.88,17.6,77.9,1020.12,0.04,0,0,0,0.047874
2022/04/15 04:39:00.010,n,308,2.88,2.52,3.24,17.6,78.6,1020.22,0.04,0,0,0,0.049591
2022/04/15 04:40:00.000,n,265,6.48,5.4,8.64,17.6,78.1,1020.22,0.04,0,0,0,0.047874
2022/04/15 04:41:00.000,n,284,7.56,5.76,8.28,17.6,78,1020.22,0.04,0,0,0,0.041809
2022/04/15 04:42:00.000,n,198,1.8,0.72,3.24,17.6,78,1020.22,0.04,0,0,0,0.040894
2022/04/15 04:43:00.000,n,163,13.32,9.72,15.84,17.6,78,1020.22,0.04,0,0,0,0.04612
2022/04/15 04:44:00.004,n,266,2.16,1.08,3.6,17.6,78,1020.32,0.04,0,0,0,0.044403
2022/04/15 04:45:00.009,n,257,4.68,4.68,5.04,17.6,78,1020.32,0.04,0,0,0,0.044403
2022/04/15 04:46:00.000,n,299,3.96,3.24,4.32,17.6,78.5,1020.22,0.04,0,0,0,0.042648
2022/04/15 04:47:00.004,n,216,3.24,2.52,5.04,17.6,78.4,1020.22,0.04,0,0,0,0.041809
2022/04/15 04:48:00.010,n,261,3.96,2.16,5.76,17.6,78.1,1020.22,0.04,0,0,0,0.04612
2022/04/15 04:49:00.000,n,180,1.8,1.44,2.16,17.6,78.1,1020.12,0.04,0,0,0,0.043526